• In Portugal
  • List of Countries
  • For 7 days
  • Water Temperature
  • Satellite Maps
  • Weather Map
  • Weather Widgets
  • user-avatar
    Login

    Hourly Weather Erdenetsagaan

    Today, 20 July, Friday

    Time Temperature Precipitation Wind Pressure Humidity
    00:00 +21°C° 0 mm 2 mps 662 mmHg 85%
    01:00 +21°C° 0 mm 2 mps 662 mmHg 88%
    02:00 +21°C° 0 mm 1 mps 661 mmHg 91%
    03:00 +20°C° 0 mm 1 mps 661 mmHg 92%
    04:00 +20°C° 0 mm 1 mps 661 mmHg 93%
    05:00 +20°C° 0 mm 1 mps 661 mmHg 94%
    06:00 +20°C° 0 mm 2 mps 662 mmHg 88%
    07:00 +23°C° 0 mm 2 mps 662 mmHg 83%
    08:00 +24°C° 0 mm 3 mps 662 mmHg 77%
    09:00 +26°C° 0 mm 3 mps 663 mmHg 72%
    10:00 +27°C° 0 mm 3 mps 663 mmHg 66%
    11:00 +28°C° 0 mm 3 mps 663 mmHg 61%
    12:00 +29°C° 0 mm 3 mps 663 mmHg 60%
    13:00 +29°C° 0 mm 3 mps 663 mmHg 58%
    14:00 +30°C° 0 mm 3 mps 663 mmHg 56%
    15:00 +30°C° 0.1 mm 3 mps 663 mmHg 56%
    16:00 +30°C° 0.1 mm 3 mps 663 mmHg 56%
    17:00 +30°C° 0.1 mm 3 mps 663 mmHg 56%
    18:00 +29°C° 0.1 mm 3 mps 663 mmHg 61%
    19:00 +27°C° 0.1 mm 3 mps 662 mmHg 67%
    20:00 +26°C° 0 mm 3 mps 662 mmHg 70%
    21:00 +26°C° 0 mm 3 mps 662 mmHg 71%
    22:00 +25°C° 0 mm 3 mps 662 mmHg 73%
    23:00 +25°C° 0 mm 3 mps 661 mmHg 74%

    Tomorrow, 21 July, Saturday

    Time Temperature Precipitation Wind Pressure Humidity
    00:00 +24°C° 0 mm 3 mps 661 mmHg 75%
    01:00 +23°C° 0 mm 4 mps 661 mmHg 75%
    02:00 +23°C° 0 mm 4 mps 661 mmHg 76%
    03:00 +23°C° 0 mm 4 mps 661 mmHg 76%
    04:00 +22°C° 0 mm 4 mps 661 mmHg 77%
    05:00 +22°C° 0 mm 4 mps 662 mmHg 77%
    06:00 +22°C° 0.3 mm 4 mps 662 mmHg 78%
    07:00 +22°C° 0.3 mm 5 mps 662 mmHg 79%
    08:00 +22°C° 0.3 mm 5 mps 662 mmHg 79%
    09:00 +23°C° 0.2 mm 5 mps 663 mmHg 71%
    10:00 +26°C° 0.2 mm 5 mps 663 mmHg 62%
    11:00 +27°C° 0.2 mm 6 mps 664 mmHg 54%
    12:00 +29°C° 0 mm 6 mps 664 mmHg 46%
    13:00 +30°C° 0 mm 6 mps 664 mmHg 39%
    14:00 +33°C° 0 mm 6 mps 664 mmHg 31%
    15:00 +33°C° 0 mm 6 mps 664 mmHg 31%
    16:00 +33°C° 0 mm 6 mps 664 mmHg 30%
    17:00 +33°C° 0 mm 5 mps 664 mmHg 30%
    18:00 +30°C° 0 mm 5 mps 664 mmHg 35%
    19:00 +28°C° 0 mm 4 mps 663 mmHg 39%
    20:00 +26°C° 0 mm 4 mps 663 mmHg 44%
    21:00 +25°C° 0 mm 4 mps 663 mmHg 44%
    22:00 +23°C° 0 mm 4 mps 663 mmHg 43%
    23:00 +22°C° 0 mm 4 mps 663 mmHg 43%

    Day after tomorrow, 22 July, Sunday

    Time Temperature Precipitation Wind Pressure Humidity
    00:00 +22°C° 0 mm 4 mps 664 mmHg 44%
    01:00 +21°C° 0 mm 4 mps 664 mmHg 44%
    02:00 +20°C° 0 mm 4 mps 664 mmHg 45%
    03:00 +20°C° 0 mm 3 mps 664 mmHg 46%
    04:00 +19°C° 0 mm 3 mps 664 mmHg 48%
    05:00 +18°C° 0 mm 3 mps 664 mmHg 50%
    06:00 +20°C° 0 mm 3 mps 665 mmHg 51%
    07:00 +21°C° 0 mm 3 mps 666 mmHg 52%
    08:00 +22°C° 0 mm 3 mps 666 mmHg 53%
    09:00 +25°C° 0 mm 3 mps 667 mmHg 49%
    10:00 +26°C° 0 mm 2 mps 667 mmHg 45%
    11:00 +28°C° 0 mm 2 mps 667 mmHg 41%
    12:00 +29°C° 0 mm 2 mps 667 mmHg 38%
    13:00 +30°C° 0 mm 3 mps 667 mmHg 34%
    14:00 +31°C° 0 mm 3 mps 667 mmHg 31%
    15:00 +31°C° 0 mm 3 mps 667 mmHg 31%
    16:00 +32°C° 0 mm 4 mps 667 mmHg 31%
    17:00 +32°C° 0 mm 4 mps 667 mmHg 32%
    18:00 +29°C° 0 mm 4 mps 667 mmHg 39%
    19:00 +26°C° 0 mm 3 mps 667 mmHg 46%
    20:00 +24°C° 0 mm 3 mps 666 mmHg 53%
    21:00 +22°C° 0 mm 3 mps 667 mmHg 56%
    22:00 +21°C° 0 mm 3 mps 667 mmHg 59%
    23:00 +20°C° 0 mm 2 mps 667 mmHg 62%

    23 July, Monday

    Time Temperature Precipitation Wind Pressure Humidity
    00:00 +19°C° 0 mm 2 mps 667 mmHg 63%
    01:00 +19°C° 0 mm 2 mps 667 mmHg 65%
    02:00 +18°C° 0 mm 2 mps 667 mmHg 67%
    03:00 +18°C° 0 mm 2 mps 667 mmHg 67%
    04:00 +18°C° 0 mm 2 mps 667 mmHg 67%
    05:00 +18°C° 0 mm 2 mps 667 mmHg 68%
    06:00 +20°C° 0 mm 2 mps 667 mmHg 62%
    07:00 +23°C° 0 mm 2 mps 668 mmHg 57%
    08:00 +25°C° 0 mm 2 mps 668 mmHg 52%
    09:00 +26°C° 0 mm 2 mps 668 mmHg 47%
    10:00 +27°C° 0 mm 2 mps 669 mmHg 43%
    11:00 +29°C° 0 mm 2 mps 669 mmHg 38%
    12:00 +29°C° 0 mm 2 mps 669 mmHg 37%
    13:00 +30°C° 0 mm 2 mps 668 mmHg 36%
    14:00 +30°C° 0 mm 3 mps 668 mmHg 35%
    15:00 +30°C° 0 mm 3 mps 668 mmHg 37%
    16:00 +30°C° 0 mm 3 mps 668 mmHg 39%
    17:00 +30°C° 0 mm 3 mps 667 mmHg 41%
    18:00 +28°C° 0.3 mm 3 mps 667 mmHg 48%
    19:00 +26°C° 0.3 mm 3 mps 667 mmHg 54%
    20:00 +24°C° 0.3 mm 3 mps 667 mmHg 61%
    21:00 +22°C° 2 mm 3 mps 667 mmHg 67%
    22:00 +21°C° 2 mm 4 mps 667 mmHg 73%
    23:00 +20°C° 2 mm 4 mps 667 mmHg 78%

    24 July, Tuesday

    Time Temperature Precipitation Wind Pressure Humidity
    00:00 +19°C° 1 mm 4 mps 666 mmHg 79%
    01:00 +19°C° 1 mm 4 mps 666 mmHg 79%
    02:00 +19°C° 1 mm 4 mps 666 mmHg 79%
    03:00 +19°C° 0.8 mm 4 mps 665 mmHg 81%
    04:00 +17°C° 0.8 mm 5 mps 665 mmHg 83%
    05:00 +17°C° 0.8 mm 5 mps 665 mmHg 85%
    06:00 +17°C° 2 mm 5 mps 665 mmHg 87%
    07:00 +17°C° 2 mm 5 mps 665 mmHg 88%
    08:00 +17°C° 2 mm 5 mps 665 mmHg 90%
    09:00 +19°C° 0.9 mm 5 mps 665 mmHg 90%
    10:00 +19°C° 0.9 mm 4 mps 665 mmHg 89%
    11:00 +20°C° 0.9 mm 4 mps 664 mmHg 89%
    12:00 +20°C° 0.5 mm 4 mps 664 mmHg 87%
    13:00 +20°C° 0.5 mm 4 mps 664 mmHg 86%
    14:00 +21°C° 0.5 mm 4 mps 664 mmHg 84%
    15:00 +21°C° 0.4 mm 4 mps 664 mmHg 85%
    16:00 +20°C° 0.4 mm 4 mps 664 mmHg 86%
    17:00 +20°C° 0.4 mm 4 mps 663 mmHg 87%
    18:00 +20°C° 0.1 mm 3 mps 663 mmHg 89%
    19:00 +19°C° 0.1 mm 3 mps 663 mmHg 91%
    20:00 +18°C° 0.1 mm 2 mps 663 mmHg 93%
    21:00 +18°C° 0.2 mm 2 mps 663 mmHg 94%
    22:00 +18°C° 0.2 mm 2 mps 662 mmHg 95%
    23:00 +18°C° 0.2 mm 2 mps 662 mmHg 95%

    25 July, Wednesday

    Time Temperature Precipitation Wind Pressure Humidity
    00:00 +17°C° 0.3 mm 2 mps 662 mmHg 95%
    01:00 +17°C° 0.3 mm 2 mps 662 mmHg 96%
    02:00 +17°C° 0.3 mm 2 mps 661 mmHg 96%
    03:00 +17°C° 0 mm 2 mps 661 mmHg 96%
    04:00 +16°C° 0 mm 2 mps 661 mmHg 95%
    05:00 +16°C° 0 mm 2 mps 661 mmHg 95%
    06:00 +17°C° 0 mm 2 mps 662 mmHg 93%
    07:00 +18°C° 0 mm 3 mps 662 mmHg 91%
    08:00 +18°C° 0 mm 3 mps 662 mmHg 88%
    09:00 +19°C° 0 mm 3 mps 663 mmHg 85%
    10:00 +20°C° 0 mm 4 mps 663 mmHg 82%
    11:00 +21°C° 0 mm 4 mps 663 mmHg 78%
    12:00 +21°C° 0 mm 4 mps 663 mmHg 76%
    13:00 +21°C° 0 mm 4 mps 663 mmHg 74%
    14:00 +21°C° 0 mm 4 mps 662 mmHg 73%
    15:00 +22°C° 0 mm 4 mps 663 mmHg 70%
    16:00 +22°C° 0 mm 4 mps 663 mmHg 68%
    17:00 +23°C° 0 mm 5 mps 663 mmHg 65%
    18:00 +21°C° 0 mm 4 mps 663 mmHg 71%
    19:00 +20°C° 0 mm 3 mps 663 mmHg 78%
    20:00 +19°C° 0 mm 3 mps 663 mmHg 84%
    21:00 +18°C° 0 mm 2 mps 663 mmHg 86%
    22:00 +17°C° 0 mm 2 mps 663 mmHg 88%
    23:00 +16°C° 0 mm 1 mps 663 mmHg 90%
    Show more